Location: Barruelo
(41.2448°N, 3.8231°W)
Time: 20:57:01
(UTC+00:00)

Cosmos 1076 Rocket - Pass Details

Date: 11 December 2025
Orbit: 582 x 603 km, 82.5° (Epoch: 12 January)

Event Time Altitude Azimuth Distance (km) Brightness Sun altitude
Rises 17:39:55 0° 2° (N) 2,853 6.7 -9.9°
Reaches altitude 10° 17:42:20 10° 12° (NNE) 1,949 5.8 -10.3°
Maximum altitude 17:46:12 32° 76° (ENE) 1,048 4.2 -11.0°
Drops below altitude 10° 17:50:03 10° 140° (SE) 1,941 5.9 -11.6°
Sets 17:52:26 0° 150° (SSE) 2,840 6.9 -12.1°
